Location: Shirley
(51.3667°N, 0.0333°W)
Time: 00:46:29
(UTC+00:00)

Daily predictions for brighter satellites

Satellite Brightness Start Highest point End
(mag) Time Altitude Azimuth Time Altitude Azimuth Time Altitude Azimuth
CZ-4C R/B 3.7 03:21:04 44° ENE 03:21:04 44° ENE 03:27:16 10° ESE
SL-16 R/B 4.1 03:30:49 25° ESE 03:30:49 25° ESE 03:33:24 10° ESE
ATLAS 5 CENTAUR R/B 3.9 03:55:57 22° E 03:55:57 22° E 03:58:21 10° ENE
ATLAS CENTAUR R/B 4.3 04:15:28 11° NNE 04:15:28 11° NNE 04:15:55 10° NNE
USA 234 3.3 04:11:20 10° ENE 04:17:51 69° SE 04:18:21 67° S
CZ-2C R/B 4.4 04:15:45 10° NNE 04:17:13 20° NNE 04:17:13 20° NNE
SL-24 R/B - RUBIN 2 4.5 04:37:01 56° NNE 04:37:01 56° NNE 04:41:49 10° NE
COSMO-SKYMED 1 3.5 04:33:03 10° SE 04:36:56 48° E 04:36:56 48° E
Cosmos 2297 Rocket 2.1 04:38:23 79° NNE 04:38:23 79° NNE 04:43:43 10° NNE
Cosmos 2227 Rocket 2.1 04:41:39 88° SSE 04:41:41 89° ESE 04:47:24 10° NNE
Cosmos 1607 4.1 04:40:14 48° S 04:41:56 70° SE 04:48:05 10° NE
Cosmos 1461 3.9 04:44:46 43° ENE 04:44:46 43° ENE 04:48:25 10° ESE
Cosmos 1190 Rocket 4.0 04:49:56 63° N 04:50:41 75° ENE 04:55:55 10° SSE
Cosmos 2219 3.6 04:53:19 47° NNW 04:53:19 47° NNW 04:57:43 10° NNE
Cosmos 2034 Rocket 4.4 04:46:44 10° S 04:52:56 64° E 04:59:14 10° NNE
Cosmos 2084 Rocket 3.8 04:54:39 64° ENE 04:54:39 64° ENE 04:58:49 10° ESE
Cosmos 1943 4.0 04:58:10 25° N 05:01:09 46° NE 05:06:33 10° SE
Lacrosse 5 3.3 05:04:54 24° SSW 05:04:54 24° SSW 05:07:33 10° S
Cosmos 1954 Rocket 4.5 05:01:23 30° N 05:03:54 59° ENE 05:09:07 10° SE
STARLINK 1053 4.4 05:06:34 39° E 05:06:34 39° E 05:08:51 10° E
Geosat 4.4 05:00:36 10° SSE 05:04:38 46° SSW 05:04:38 46° SSW
STARLINK 1061 4.3 05:08:35 41° E 05:08:35 41° E 05:10:56 10° E
CZ-4C R/B 2.9 05:06:17 44° WNW 05:08:48 69° SW 05:16:52 10° SSE
STARLINK 1067 4.1 05:11:08 45° E 05:11:08 45° E 05:13:36 10° E
Meteor 1-27 Rocket 3.7 05:08:17 36° NNW 05:10:45 66° W 05:16:36 10° S
SL-16 R/B 2.5 05:12:46 44° SW 05:12:46 44° SW 05:17:39 10° S
Meteor 2-11 Rocket 4.4 05:06:38 10° S 05:12:43 84° E 05:18:53 10° NNE
STARLINK 1058 4.0 05:13:36 48° E 05:13:36 48° E 05:16:10 10° E
STARLINK 1043 3.8 05:16:19 53° E 05:16:19 53° E 05:19:01 10° E
STARLINK 1065 3.6 05:18:34 57° E 05:18:34 57° E 05:21:21 10° E
Cosmos 1603 3.9 05:15:11 27° NNW 05:18:24 73° ENE 05:24:08 10° SE
Cosmos 1092 Rocket 4.1 05:12:14 10° N 05:18:29 76° E 05:24:37 10° SSE
STARLINK 1063 3.5 05:21:14 62° E 05:21:14 62° E 05:24:08 10° E
Cosmos 1891 Rocket 4.5 05:16:14 10° SSW 05:22:36 64° WNW 05:28:55 10° N
STARLINK 1064 3.3 05:23:38 67° ENE 05:23:38 67° ENE 05:26:38 10° E
SKYMED 2 3.5 05:21:04 10° S 05:25:22 60° WSW 05:25:37 59° W
Cosmos 2082 3.6 05:22:30 25° SW 05:25:51 71° WNW 05:31:30 10° NNE
STARLINK 1041 3.2 05:26:21 73° ENE 05:26:21 73° ENE 05:29:30 10° ESE
Cosmos 1464 Rocket 3.9 05:21:27 10° SSW 05:27:34 58° WNW 05:33:39 10° N
STARLINK 1038 3.1 05:28:55 79° ENE 05:28:55 79° ENE 05:32:10 10° ESE
ALOS 2.5 05:25:02 10° NNE 05:29:43 69° ESE 05:34:22 10° S
STARLINK 1046 3.0 05:31:27 84° NE 05:31:27 84° NE 05:34:49 10° ESE
METEOR-M 4.4 05:26:24 10° NNE 05:31:46 71° ESE 05:37:06 10° S
STARLINK 1039 2.9 05:34:00 84° NNW 05:34:05 86° NNE 05:37:28 10° ESE
STARLINK 1045 2.9 05:34:32 83° NW 05:34:38 86° NNE 05:38:02 10° ESE
ATLAS 5 CENTAUR R/B 1.8 05:37:30 44° W 05:38:38 56° NW 05:43:35 10° NE
NOSS 2-1 (C) 4.3 05:36:30 34° NW 05:38:58 73° SW 05:46:10 10° SE
Cosmos 1371 Rocket 3.9 05:36:01 10° SSW 05:41:17 83° WNW 05:46:32 10° NNE
NOSS 2-1 (D) 4.3 05:39:58 33° WNW 05:42:31 70° SW 05:49:43 10° SSE
Cosmos 407 Rocket 4.0 05:42:35 34° WNW 05:43:51 40° WSW 05:48:48 10° S
SJ-12 3.8 05:41:14 10° N 05:45:23 70° WNW 05:49:29 10° SSW
Cosmos 614 Rocket 4.5 05:45:46 33° W 05:46:27 35° WSW 05:51:02 10° SSW
PSLV R/B 4.0 05:43:05 10° N 05:47:03 51° WNW 05:51:02 10° SW
CZ-4B DEB 4.1 05:43:02 10° NNE 05:48:35 83° WNW 05:54:07 10° SSW
Cosmos 1484 Rocket 3.0 05:45:03 10° N 05:48:54 46° WNW 05:52:40 10° SW
Cosmos 1933 Rocket 3.5 05:48:30 10° SSW 05:52:46 55° WNW 05:57:04 10° N
Cosmos 1140 Rocket 3.8 05:51:01 27° NW 05:53:24 45° WSW 05:58:20 10° S
ATLAS CENTAUR R/B 3.5 05:51:39 14° NNW 05:53:45 18° NNE 05:56:45 10° ENE
Cosmos 2221 Rocket 4.2 05:51:38 10° N 05:56:02 57° ENE 06:00:21 10° SSE
FALCON 9 DEB 2.7 05:56:44 47° S 05:56:44 47° S 05:58:50 10° SE
Okean 1-7 3.0 05:52:53 12° NNW 05:56:54 67° W 06:01:16 10° S
CZ-2C R/B 3.8 05:54:39 10° N 05:56:35 19° NNW 05:56:35 19° NNW
Nadezhda 4 Rocket 4.4 05:54:56 10° NNW 06:00:39 39° W 06:06:18 10° SSW
USA 234 3.3 05:54:26 10° ENE 06:00:54 64° NNW 06:05:43 19° W
Cosmos 1340 3.9 05:59:41 10° SSE 06:03:15 43° E 06:06:51 10° NNE
STARLINK 1034 2.8 06:03:55 42° W 06:04:43 63° SSW 06:07:38 10° ESE
STARLINK 1027 2.8 06:05:54 39° W 06:06:44 61° SSW 06:09:38 10° ESE
STARLINK 1052 2.9 06:05:55 39° W 06:06:47 61° SSW 06:09:41 10° ESE
STARLINK 1028 2.9 06:06:07 39° W 06:06:58 61° SSW 06:09:52 10° ESE
STARLINK 1021 2.9 06:06:20 39° W 06:07:10 61° SSW 06:10:04 10° ESE
STARLINK 1019 2.9 06:06:31 38° W 06:07:24 61° SSW 06:10:21 10° ESE
STARLINK 1012 2.9 06:06:43 38° W 06:07:35 60° SSW 06:10:28 10° ESE
STARLINK 1010 2.9 06:06:58 38° W 06:07:50 60° SSW 06:10:44 10° ESE
STARLINK 1026 2.9 06:07:11 38° W 06:08:04 60° SSW 06:10:58 10° ESE
STARLINK 1013 2.9 06:07:24 37° W 06:08:17 60° SSW 06:11:10 10° ESE
Cosmos 1428 Rocket 4.5 06:02:08 10° NNW 06:08:26 77° W 06:14:44 10° S
STARLINK 1009 2.9 06:07:37 37° W 06:08:31 60° SSW 06:11:25 10° ESE
Okean O Rocket 1.5 06:04:21 10° N 06:08:43 71° WNW 06:13:05 10° SSW
STARLINK 1015 2.9 06:07:49 37° W 06:08:44 59° SSW 06:11:38 10° ESE
STARLINK 1016 2.9 06:08:03 37° W 06:08:58 59° SSW 06:11:52 10° ESE
STARLINK 1017 2.9 06:08:12 36° W 06:09:08 59° SSW 06:12:02 10° ESE
STARLINK 1008 2.9 06:08:17 36° W 06:09:12 59° SSW 06:12:05 10° ESE
STARLINK 1014 2.9 06:08:29 36° W 06:09:25 59° SSW 06:12:18 10° ESE
STARLINK 1025 2.9 06:08:43 36° W 06:09:39 59° SSW 06:12:32 10° ESE
STARLINK 1040 3.0 06:08:57 35° W 06:09:55 56° SSW 06:12:49 10° SE
STARLINK 1023 2.9 06:09:09 35° W 06:10:06 58° SSW 06:12:59 10° SE
STARLINK 1007 2.9 06:09:21 35° W 06:10:19 58° SSW 06:13:12 10° SE
STARLINK 1048 2.9 06:09:35 35° W 06:10:33 58° SSW 06:13:26 10° SE
STARLINK 1049 2.9 06:09:47 35° W 06:10:46 58° SSW 06:13:40 10° SE
STARLINK 1051 2.9 06:10:01 34° W 06:11:00 58° SSW 06:13:54 10° SE
STARLINK 1037 2.9 06:10:13 34° W 06:11:13 57° SSW 06:14:06 10° SE
STARLINK 1059 2.9 06:10:25 34° W 06:11:26 57° SSW 06:14:19 10° SE
Cosmos 2263 Rocket 2.7 06:05:57 10° SSW 06:11:26 62° ESE 06:16:57 10° NE
STARLINK 1057 2.9 06:10:39 34° W 06:11:40 57° SSW 06:14:33 10° SE
STARLINK 1068 3.0 06:11:05 33° W 06:12:07 57° SSW 06:15:00 10° SE
STARLINK 1029 3.0 06:11:18 33° W 06:12:20 56° SSW 06:15:13 10° SE
STARLINK 1060 3.0 06:11:31 33° W 06:12:34 56° SSW 06:15:27 10° SE
STARLINK 1030 3.0 06:11:41 32° W 06:12:47 56° SSW 06:15:42 10° SE
STARLINK 1020 3.0 06:11:56 32° W 06:13:00 56° SSW 06:15:52 10° SE
COSMO-SKYMED 1 3.7 06:10:16 10° SW 06:13:40 22° W 06:14:08 22° W
STARLINK 1033 3.0 06:12:35 32° W 06:13:40 55° SSW 06:16:33 10° SE
STARLINK 1031 3.0 06:12:49 31° W 06:13:55 55° SSW 06:16:47 10° SE
Cosmos 2227 4.3 06:08:12 10° SSW 06:13:57 83° ESE 06:19:46 10° NNE
STARLINK 1024 3.0 06:12:59 31° W 06:14:08 55° SSW 06:17:03 10° SE
STARLINK 1035 3.0 06:13:15 31° W 06:14:22 55° SSW 06:17:14 10° SE
STARLINK 1032 3.0 06:13:28 31° W 06:14:35 55° SSW 06:17:27 10° SE
STARLINK 1011 3.0 06:13:38 30° W 06:14:47 55° SSW 06:17:42 10° SE
STARLINK 1036 3.0 06:13:55 30° W 06:15:02 54° SSW 06:17:55 10° SE
STARLINK 1047 3.0 06:14:21 30° W 06:15:30 54° SSW 06:18:22 10° SE
Radarsat Rocket 4.3 06:10:14 10° NNE 06:16:14 77° ESE 06:22:50 10° SSW
CZ-4 R/B 4.3 06:16:16 10° NE 06:18:51 17° E 06:21:26 10° SE
FALCON 9 DEB 3.2 06:18:51 27° WSW 06:19:29 33° SSW 06:21:39 10° SE
Cosmos 1346 Rocket 3.2 06:17:02 10° S 06:20:51 63° E 06:24:42 10° NNE
ADEOS Rocket 3.3 06:14:00 10° SSE 06:21:08 86° ENE 06:27:33 10° NNW
Meteor 1-25 Rocket 4.2 06:16:33 10° SSW 06:22:07 66° WNW 06:27:47 10° N
Cosmos 2297 Rocket 3.3 06:20:15 18° WNW 06:22:50 24° NW 06:27:26 10° NNE
Cosmos 1461 3.9 06:21:11 20° WNW 06:23:16 31° WSW 06:27:06 10° S
Cosmos 2026 Rocket 4.1 06:17:38 10° NNW 06:23:35 54° W 06:29:35 10° SSW
STARLINK 1050 3.4 06:21:43 22° W 06:23:36 55° SSW 06:26:52 10° SE
CZ-4B R/B 3.2 06:19:21 10° N 06:24:51 65° WNW 06:30:24 10° SSW
PAYLOAD B 4.4 06:19:48 10° N 06:25:07 51° WNW 06:30:27 10° SW
FALCON 9 DEB 3.4 06:24:30 23° WSW 06:25:20 30° SSW 06:27:30 10° SE
Cosmos 1624 Rocket 4.3 06:21:06 10° SW 06:26:13 46° WNW 06:31:23 10° NNE
STARLINK 1055 3.4 06:24:25 21° W 06:26:25 53° SSW 06:29:42 10° SE
Cosmos 1703 Rocket 4.4 06:22:52 12° NNW 06:26:29 30° W 06:30:22 10° SSW
Cosmos 2227 Rocket 3.3 06:23:32 17° W 06:26:30 25° NW 06:31:08 10° NNE
STARLINK 1022 3.5 06:25:55 20° W 06:27:59 52° SSW 06:31:15 10° SE
Cosmos 1607 4.4 06:24:25 12° W 06:29:37 39° NNW 06:35:24 10° NE
Meteor 2-13 Rocket 4.5 06:24:04 10° N 06:30:14 89° W 06:36:23 10° S
Cosmos 2056 Rocket 3.8 06:26:09 10° SW 06:30:59 42° WNW 06:35:53 10° NNE
IRS-1C Rocket 4.4 06:25:51 10° NNE 06:31:09 73° ESE 06:36:23 10° S
STARLINK 1042 3.6 06:29:14 19° W 06:31:25 49° SSW 06:34:40 10° SE
Cosmos 1655 Rocket 4.0 06:26:55 10° N 06:33:12 87° W 06:39:25 10° S
STARLINK 1056 3.6 06:31:33 18° W 06:33:48 48° SSW 06:37:03 10° SE
Helios 1A Rocket 3.3 06:30:27 10° N 06:34:17 41° WNW 06:38:04 10° SW
STARLINK 1054 3.7 06:34:07 17° W 06:36:28 46° SSW 06:39:42 10° SE
Cosmos 2279 Rocket 4.0 06:30:16 10° S 06:36:29 83° W 06:42:45 10° N
FENGYUN 3A 4.0 06:31:43 10° N 06:36:45 41° WNW 06:41:45 10° SW
Meteor 1-19 Rocket 4.2 06:31:27 10° NNW 06:36:50 57° W 06:42:14 10° S
STARLINK 1062 3.7 06:36:29 16° W 06:38:55 44° SSW 06:42:08 10° SE
Cosmos 1634 Rocket 4.1 06:33:31 10° SSW 06:39:35 53° WNW 06:45:38 10° N
Cosmos 1733 Rocket 3.6 06:37:49 10° S 06:42:05 63° E 06:46:22 10° NNE
STARLINK 1053 3.8 06:39:32 15° W 06:42:06 43° SSW 06:45:18 10° SE
H-2A R/B 2.6 06:39:33 10° N 06:43:16 75° WNW 06:47:00 10° SSW
STARLINK 1061 3.8 06:41:31 14° W 06:44:08 41° SSW 06:47:20 10° SE
Cosmos 1943 3.8 06:40:01 10° NW 06:45:08 38° WSW 06:50:15 10° S
Starlink Launch 2 leader 4.1 06:44:13 13° W 06:45:50 21° SW 06:47:48 10° SSE
STARLINK 1067 3.9 06:44:05 13° W 06:46:48 40° SSW 06:49:58 10° SE
Okean 1 4.2 06:43:25 10° NNW 06:46:49 28° W 06:50:13 10° SSW
STARLINK 1044 3.9 06:44:46 13° W 06:46:57 31° SSW 06:49:33 10° SSE
Cosmos 1869 Rocket 3.9 06:43:30 10° SW 06:47:35 41° WNW 06:51:44 10° N
Cosmos 724 4.4 06:42:22 10° WSW 06:48:16 55° NW 06:54:06 10° NE
STARLINK 1058 4.0 06:46:33 12° W 06:49:22 38° SSW 06:52:31 10° SE
Starlink Launch 2 trailer 4.2 06:47:46 11° W 06:49:29 20° SW 06:51:25 10° SSE
STARLINK 1043 4.0 06:49:18 11° W 06:52:13 37° SSW 06:55:22 10° SE
Cosmos 2082 Rocket 4.1 06:49:22 10° NNW 06:53:24 19° NNE 06:57:25 10° ENE
Cosmos 371 Rocket 4.5 06:49:11 10° S 06:53:49 48° ESE 06:58:30 10° NE
Cosmos 1420 Rocket 4.1 06:48:51 10° SW 06:53:57 54° WNW 06:59:03 10° NNE
STARLINK 1065 4.1 06:51:32 11° W 06:54:32 36° SSW 06:57:38 10° SE
CZ-4C R/B 4.3 06:51:30 10° WNW 06:56:36 20° WSW 07:02:06 10° SSW
STARLINK 1063 4.1 06:54:11 10° W 06:57:17 34° SSW 07:00:23 10° SE
Cosmos 1741 Rocket 4.4 06:53:55 10° NW 06:58:50 43° WSW 07:03:45 10° S
Meteor 2-4 Rocket 3.8 06:53:52 10° NNW 06:59:22 58° W 07:04:42 10° S
STARLINK 1064 4.2 06:56:42 10° W 06:59:47 33° SSW 07:02:51 10° SSE
CZ-2C R/B 4.0 06:55:14 10° S 06:59:51 56° W 07:04:34 10° NNW
SMAP 3.1 06:55:57 10° N 07:00:34 61° WNW 07:05:09 10° SSW
IRIDIUM 106 4.4 06:56:29 10° N 07:01:45 87° E 07:06:58 10° S
BREEZE-M DEB (TANK) 4.0 07:01:46 10° SW 07:02:32 11° SSW 07:03:26 10° S
STARLINK 1041 4.3 06:59:35 10° W 07:02:39 32° SSW 07:05:42 10° SSE
Feng Yun 1-1 Rocket 4.2 06:57:21 10° NNE 07:02:51 75° WNW 07:08:29 10° SSW
STARLINK 1038 4.3 07:02:16 10° W 07:05:19 31° SW 07:08:21 10° SSE
ALOS 3.5 07:03:20 10° NNW 07:06:41 20° WNW 07:10:02 10° WSW
Cosmos 1674 Rocket 3.5 07:02:33 10° NNW 07:06:55 71° W 07:11:14 10° S
YAOGAN 6 2.9 07:03:45 10° NNE 07:07:26 74° E 07:11:08 10° S
STARLINK 1046 4.4 07:04:56 10° W 07:07:57 30° SW 07:10:57 10° SSE
YAOGAN 1 4.0 07:04:44 10° NNE 07:08:53 42° E 07:13:00 10° S
Okean 3 4.1 07:06:08 10° NNW 07:09:57 35° W 07:13:45 10° SSW
